Time,TemperatureF,DewpointF,PressureIn,WindDirection,WindDirectionDegrees,WindSpeedMPH,WindSpeedGustMPH,Humidity,HourlyPrecipIn,Conditions,Clouds,dailyrainin,SolarRadiationWatts/m^2,SoftwareType,DateUTC
2013-10-30 00:02:00,45.6,42.0,30.14,SSE,164,2.0,2.0,87,0.00,,,0.00,0,Wunderground v.1.15,2013-10-30 05:02:00,
2013-10-30 00:07:00,45.7,42.1,30.14,SSE,164,0.0,2.0,87,0.00,,,0.00,0,Wunderground v.1.15,2013-10-30 05:07:00,
2013-10-30 00:13:00,45.7,41.8,30.14,SSE,164,0.0,1.0,86,0.00,,,0.00,0,Wunderground v.1.15,2013-10-30 05:13:00,
2013-10-30 00:18:00,45.6,41.7,30.14,SSE,164,0.0,1.0,86,0.00,,,0.00,0,Wunderground v.1.15,2013-10-30 05:18:00,
2013-10-30 00:23:00,45.6,41.7,30.14,SSE,164,0.0,0.0,86,0.00,,,0.00,0,Wunderground v.1.15,2013-10-30 05:23:00,
2013-10-30 00:29:00,45.5,41.6,30.14,SSE,164,0.0,0.0,86,0.00,,,0.00,0,Wunderground v.1.15,2013-10-30 05:29:00,
2013-10-30 00:34:00,45.4,41.5,30.13,SSE,164,0.0,0.0,86,0.00,,,0.00,0,Wunderground v.1.15,2013-10-30 05:34:00,
2013-10-30 00:39:00,45.3,41.4,30.14,SSE,164,0.0,0.0,86,0.00,,,0.00,0,Wunderground v.1.15,2013-10-30 05:39:00,
2013-10-30 00:45:00,45.3,41.4,30.13,SSE,164,0.0,1.0,86,0.00,,,0.00,0,Wunderground v.1.15,2013-10-30 05:45:00,
2013-10-30 00:50:00,45.3,41.7,30.14,SSE,164,0.0,0.0,87,0.00,,,0.00,0,Wunderground v.1.15,2013-10-30 05:50:00,
2013-10-30 00:55:00,45.5,41.9,30.13,SSE,164,1.0,1.0,87,0.00,,,0.00,0,Wunderground v.1.15,2013-10-30 05:55:00,
2013-10-30 01:01:00,45.5,41.6,30.13,SSE,164,2.0,2.0,86,0.00,,,0.00,0,Wunderground v.1.15,2013-10-30 06:01:00,
2013-10-30 01:06:00,45.6,41.7,30.13,SSE,164,1.0,3.0,86,0.00,,,0.00,0,Wunderground v.1.15,2013-10-30 06:06:00,
2013-10-30 01:11:00,45.7,41.8,30.13,SSE,164,2.0,2.0,86,0.00,,,0.00,0,Wunderground v.1.15,2013-10-30 06:11:00,
2013-10-30 01:17:00,45.7,41.8,30.13,SSE,164,3.0,3.0,86,0.00,,,0.00,0,Wunderground v.1.15,2013-10-30 06:17:00,
2013-10-30 01:22:00,45.8,41.9,30.13,SSE,164,2.0,2.0,86,0.00,,,0.00,0,Wunderground v.1.15,2013-10-30 06:22:00,
2013-10-30 01:27:00,45.9,41.9,30.13,SSE,164,2.0,3.0,86,0.00,,,0.00,0,Wunderground v.1.15,2013-10-30 06:27:00,
2013-10-30 01:33:00,46.0,42.0,30.12,SSE,164,2.0,3.0,86,0.00,,,0.00,0,Wunderground v.1.15,2013-10-30 06:33:00,
2013-10-30 01:38:00,46.1,42.1,30.13,SSE,164,2.0,3.0,86,0.00,,,0.00,0,Wunderground v.1.15,2013-10-30 06:38:00,
2013-10-30 01:43:00,46.1,42.1,30.12,SSE,164,1.0,3.0,86,0.00,,,0.00,0,Wunderground v.1.15,2013-10-30 06:43:00,
2013-10-30 01:48:00,46.2,42.2,30.12,SSE,164,0.0,3.0,86,0.00,,,0.00,0,Wunderground v.1.15,2013-10-30 06:48:00,
2013-10-30 01:54:00,46.3,42.3,30.12,SSE,164,0.0,1.0,86,0.00,,,0.00,0,Wunderground v.1.15,2013-10-30 06:54:00,
2013-10-30 01:59:00,46.3,42.3,30.12,SSE,164,1.0,1.0,86,0.00,,,0.00,0,Wunderground v.1.15,2013-10-30 06:59:00,
2013-10-30 02:04:00,46.4,42.4,30.12,SSE,164,2.0,4.0,86,0.00,,,0.00,0,Wunderground v.1.15,2013-10-30 07:04:00,
2013-10-30 02:09:00,46.4,42.4,30.12,South,170,0.0,4.0,86,0.00,,,0.00,0,Wunderground v.1.15,2013-10-30 07:09:00,
2013-10-30 02:14:00,46.6,42.6,30.11,SSE,166,1.0,4.0,86,0.00,,,0.00,0,Wunderground v.1.15,2013-10-30 07:14:00,
2013-10-30 02:19:00,46.7,42.7,30.11,SSE,164,0.0,5.0,86,0.00,,,0.00,0,Wunderground v.1.15,2013-10-30 07:19:00,
2013-10-30 02:24:00,46.7,42.7,30.11,SSE,164,2.0,5.0,86,0.00,,,0.00,0,Wunderground v.1.15,2013-10-30 07:24:00,
2013-10-30 02:29:00,46.8,42.8,30.10,South,171,2.0,5.0,86,0.00,,,0.00,0,Wunderground v.1.15,2013-10-30 07:29:00,
2013-10-30 02:34:00,46.8,42.8,30.10,SSE,166,3.0,5.0,86,0.00,,,0.00,0,Wunderground v.1.15,2013-10-30 07:34:00,
2013-10-30 02:39:00,46.8,42.8,30.10,SSE,167,4.0,6.0,86,0.00,,,0.00,0,Wunderground v.1.15,2013-10-30 07:39:00,
2013-10-30 02:44:00,46.7,42.7,30.09,SSE,161,5.0,7.0,86,0.00,,,0.00,0,Wunderground v.1.15,2013-10-30 07:44:00,
2013-10-30 02:49:00,46.7,42.7,30.10,SSE,167,0.0,7.0,86,0.00,,,0.00,0,Wunderground v.1.15,2013-10-30 07:49:00,
2013-10-30 02:54:00,46.7,42.7,30.10,South,169,2.0,4.0,86,0.00,,,0.00,0,Wunderground v.1.15,2013-10-30 07:54:00,
2013-10-30 02:59:00,46.7,42.7,30.10,SSW,198,2.0,4.0,86,0.00,,,0.00,0,Wunderground v.1.15,2013-10-30 07:59:00,
2013-10-30 03:04:00,46.6,42.6,30.10,SSE,166,0.0,4.0,86,0.00,,,0.00,0,Wunderground v.1.15,2013-10-30 08:04:00,
2013-10-30 03:09:00,46.6,42.6,30.10,SSE,166,1.0,4.0,86,0.00,,,0.00,0,Wunderground v.1.15,2013-10-30 08:09:00,
2013-10-30 03:14:00,46.5,42.5,30.11,SW,234,0.0,3.0,86,0.00,,,0.00,0,Wunderground v.1.15,2013-10-30 08:14:00,
2013-10-30 03:19:00,46.4,42.7,30.10,SSE,158,2.0,4.0,87,0.00,,,0.00,0,Wunderground v.1.15,2013-10-30 08:19:00,
2013-10-30 03:24:00,46.4,42.7,30.11,SSE,158,0.0,4.0,87,0.00,,,0.00,0,Wunderground v.1.15,2013-10-30 08:24:00,
2013-10-30 03:29:00,46.5,42.8,30.11,SSE,158,0.0,4.0,87,0.00,,,0.00,0,Wunderground v.1.15,2013-10-30 08:29:00,
2013-10-30 03:34:00,46.5,43.1,30.11,SSE,158,1.0,4.0,88,0.00,,,0.00,0,Wunderground v.1.15,2013-10-30 08:34:00,
2013-10-30 03:39:00,46.6,43.2,30.10,South,169,0.0,5.0,88,0.00,,,0.00,0,Wunderground v.1.15,2013-10-30 08:39:00,
2013-10-30 03:44:00,46.8,43.4,30.10,South,169,2.0,5.0,88,0.00,,,0.00,0,Wunderground v.1.15,2013-10-30 08:44:00,
2013-10-30 03:49:00,46.9,43.5,30.10,South,169,0.0,5.0,88,0.00,,,0.00,0,Wunderground v.1.15,2013-10-30 08:49:00,
2013-10-30 03:54:00,47.0,43.6,30.10,South,169,0.0,2.0,88,0.00,,,0.00,0,Wunderground v.1.15,2013-10-30 08:54:00,
2013-10-30 03:59:00,47.1,43.7,30.10,South,169,2.0,4.0,88,0.00,,,0.00,0,Wunderground v.1.15,2013-10-30 08:59:00,
2013-10-30 04:04:00,47.2,43.5,30.10,South,170,1.0,5.0,87,0.00,,,0.00,0,Wunderground v.1.15,2013-10-30 09:04:00,
2013-10-30 04:09:00,47.2,43.5,30.10,South,171,0.0,5.0,87,0.00,,,0.00,0,Wunderground v.1.15,2013-10-30 09:09:00,
2013-10-30 04:14:00,47.2,43.8,30.11,SSE,163,1.0,4.0,88,0.00,,,0.00,0,Wunderground v.1.15,2013-10-30 09:14:00,
2013-10-30 04:19:00,47.3,43.9,30.11,South,175,0.0,4.0,88,0.00,,,0.00,0,Wunderground v.1.15,2013-10-30 09:19:00,
2013-10-30 04:24:00,47.3,43.6,30.11,SSE,163,0.0,4.0,87,0.00,,,0.00,0,Wunderground v.1.15,2013-10-30 09:24:00,
2013-10-30 04:29:00,47.3,43.6,30.11,South,174,1.0,6.0,87,0.00,,,0.00,0,Wunderground v.1.15,2013-10-30 09:29:00,
2013-10-30 04:34:00,47.2,43.8,30.11,SW,226,0.0,6.0,88,0.00,,,0.00,0,Wunderground v.1.15,2013-10-30 09:34:00,
2013-10-30 04:39:00,47.3,43.9,30.11,SSW,209,0.0,7.0,88,0.00,,,0.00,0,Wunderground v.1.15,2013-10-30 09:39:00,
2013-10-30 04:44:00,47.3,44.2,30.11,SSW,211,1.0,3.0,89,0.00,,,0.00,0,Wunderground v.1.15,2013-10-30 09:44:00,
2013-10-30 04:49:00,47.3,44.2,30.10,South,180,0.0,7.0,89,0.00,,,0.00,0,Wunderground v.1.15,2013-10-30 09:49:00,
2013-10-30 04:54:00,47.2,44.1,30.10,SSE,161,0.0,4.0,89,0.00,,,0.00,0,Wunderground v.1.15,2013-10-30 09:54:00,
2013-10-30 04:59:00,47.2,44.1,30.10,SW,224,0.0,1.0,89,0.00,,,0.00,0,Wunderground v.1.15,2013-10-30 09:59:00,
2013-10-30 05:04:00,47.1,44.3,30.11,SSE,165,0.0,4.0,90,0.00,,,0.00,0,Wunderground v.1.15,2013-10-30 10:04:00,
2013-10-30 05:09:00,47.1,44.3,30.10,SSE,165,0.0,4.0,90,0.00,,,0.00,0,Wunderground v.1.15,2013-10-30 10:09:00,
2013-10-30 05:14:00,47.1,44.3,30.10,SSE,165,4.0,5.0,90,0.00,,,0.00,0,Wunderground v.1.15,2013-10-30 10:14:00,
2013-10-30 05:19:00,47.1,44.6,30.10,South,169,3.0,6.0,91,0.00,,,0.00,0,Wunderground v.1.15,2013-10-30 10:19:00,
2013-10-30 05:24:00,47.0,44.5,30.10,South,169,2.0,3.0,91,0.00,,,0.00,0,Wunderground v.1.15,2013-10-30 10:24:00,
2013-10-30 05:29:00,47.0,44.5,30.10,South,169,3.0,3.0,91,0.00,,,0.00,0,Wunderground v.1.15,2013-10-30 10:29:00,
2013-10-30 05:34:00,47.0,44.5,30.09,SE,125,3.0,4.0,91,0.00,,,0.00,0,Wunderground v.1.15,2013-10-30 10:34:00,
2013-10-30 05:39:00,47.0,44.8,30.09,SE,125,1.0,4.0,92,0.00,,,0.00,0,Wunderground v.1.15,2013-10-30 10:39:00,
2013-10-30 05:44:00,46.9,44.7,30.10,SE,125,4.0,4.0,92,0.00,,,0.00,0,Wunderground v.1.15,2013-10-30 10:44:00,
2013-10-30 05:49:00,46.9,44.7,30.10,SSE,167,3.0,5.0,92,0.00,,,0.00,0,Wunderground v.1.15,2013-10-30 10:49:00,
2013-10-30 05:54:00,46.8,44.6,30.09,SE,142,3.0,4.0,92,0.00,,,0.00,0,Wunderground v.1.15,2013-10-30 10:54:00,
2013-10-30 05:59:00,46.7,44.5,30.09,SSE,154,4.0,4.0,92,0.00,,,0.00,0,Wunderground v.1.15,2013-10-30 10:59:00,
2013-10-30 06:04:00,46.7,44.8,30.09,SSE,154,3.0,5.0,93,0.00,,,0.00,0,Wunderground v.1.15,2013-10-30 11:04:00,
2013-10-30 06:10:00,46.6,44.7,30.09,SSE,154,2.0,3.0,93,0.00,,,0.00,0,Wunderground v.1.15,2013-10-30 11:10:00,
2013-10-30 06:15:00,46.6,44.7,30.09,SSE,154,1.0,3.0,93,0.00,,,0.00,0,Wunderground v.1.15,2013-10-30 11:15:00,
2013-10-30 06:20:00,46.5,44.6,30.09,SSE,154,2.0,2.0,93,0.00,,,0.00,0,Wunderground v.1.15,2013-10-30 11:20:00,
2013-10-30 06:25:00,46.5,44.6,30.10,SSE,154,2.0,3.0,93,0.00,,,0.00,0,Wunderground v.1.15,2013-10-30 11:25:00,
2013-10-30 06:30:00,46.5,44.6,30.10,SSE,154,0.0,1.0,93,0.00,,,0.00,0,Wunderground v.1.15,2013-10-30 11:30:00,
2013-10-30 06:35:00,46.5,44.6,30.09,SSE,154,0.0,3.0,93,0.00,,,0.00,0,Wunderground v.1.15,2013-10-30 11:35:00,
2013-10-30 06:40:00,46.5,44.6,30.09,SSE,154,0.0,1.0,93,0.00,,,0.00,0,Wunderground v.1.15,2013-10-30 11:40:00,
2013-10-30 06:45:00,46.4,44.8,30.09,SSE,154,2.0,3.0,94,0.00,,,0.00,0,Wunderground v.1.15,2013-10-30 11:45:00,
2013-10-30 06:50:00,46.4,44.8,30.08,SSE,154,1.0,2.0,94,0.00,,,0.00,0,Wunderground v.1.15,2013-10-30 11:50:00,
2013-10-30 06:55:00,46.4,44.8,30.08,SSE,154,2.0,3.0,94,0.00,,,0.00,0,Wunderground v.1.15,2013-10-30 11:55:00,
2013-10-30 07:00:00,46.4,44.8,30.08,SSE,154,1.0,2.0,94,0.00,,,0.00,0,Wunderground v.1.15,2013-10-30 12:00:00,
2013-10-30 07:05:00,46.4,44.8,30.07,SSE,154,3.0,4.0,94,0.00,,,0.00,0,Wunderground v.1.15,2013-10-30 12:05:00,
2013-10-30 07:10:00,46.4,44.8,30.07,ESE,109,4.0,4.0,94,0.00,,,0.00,0,Wunderground v.1.15,2013-10-30 12:10:00,
2013-10-30 07:15:00,46.4,44.8,30.08,SE,144,2.0,5.0,94,0.00,,,0.00,0,Wunderground v.1.15,2013-10-30 12:15:00,
2013-10-30 07:20:00,46.5,44.9,30.07,SE,144,3.0,3.0,94,0.00,,,0.00,0,Wunderground v.1.15,2013-10-30 12:20:00,
2013-10-30 07:25:00,46.5,44.9,30.07,SE,144,2.0,4.0,94,0.00,,,0.00,0,Wunderground v.1.15,2013-10-30 12:25:00,
2013-10-30 07:30:00,46.4,44.8,30.07,SE,144,2.0,3.0,94,0.00,,,0.00,0,Wunderground v.1.15,2013-10-30 12:30:00,
2013-10-30 07:35:00,46.5,44.9,30.07,SE,144,3.0,4.0,94,0.00,,,0.00,0,Wunderground v.1.15,2013-10-30 12:35:00,
2013-10-30 07:40:00,46.5,44.9,30.07,SE,144,3.0,3.0,94,0.00,,,0.00,5,Wunderground v.1.15,2013-10-30 12:40:00,
2013-10-30 07:45:00,46.5,44.9,30.07,SE,144,1.0,4.0,94,0.00,,,0.00,7,Wunderground v.1.15,2013-10-30 12:45:00,
2013-10-30 07:50:00,46.6,45.0,30.07,SE,144,3.0,3.0,94,0.00,,,0.00,9,Wunderground v.1.15,2013-10-30 12:50:00,
2013-10-30 07:55:00,46.6,45.0,30.07,SE,144,2.0,4.0,94,0.00,,,0.00,12,Wunderground v.1.15,2013-10-30 12:55:00,
2013-10-30 08:00:00,46.8,45.2,30.08,SE,144,3.0,4.0,94,0.00,,,0.00,11,Wunderground v.1.15,2013-10-30 13:00:00,
2013-10-30 08:05:00,46.9,45.3,30.08,SE,144,3.0,5.0,94,0.00,,,0.00,16,Wunderground v.1.15,2013-10-30 13:05:00,
2013-10-30 08:10:00,47.0,45.4,30.08,SE,144,3.0,3.0,94,0.00,,,0.00,12,Wunderground v.1.15,2013-10-30 13:10:00,
2013-10-30 08:15:00,47.1,45.5,30.08,SE,126,4.0,5.0,94,0.00,,,0.00,18,Wunderground v.1.15,2013-10-30 13:15:00,
2013-10-30 08:21:00,47.2,45.6,30.07,ESE,112,3.0,3.0,94,0.00,,,0.00,21,Wunderground v.1.15,2013-10-30 13:21:00,
2013-10-30 08:26:00,47.3,45.7,30.08,ESE,112,4.0,5.0,94,0.00,,,0.00,14,Wunderground v.1.15,2013-10-30 13:26:00,
2013-10-30 08:31:00,47.4,45.8,30.09,ESE,112,0.0,3.0,94,0.00,,,0.00,26,Wunderground v.1.15,2013-10-30 13:31:00,
2013-10-30 08:36:00,47.5,45.9,30.08,ESE,112,0.0,3.0,94,0.00,,,0.00,21,Wunderground v.1.15,2013-10-30 13:36:00,
2013-10-30 08:41:00,47.6,46.0,30.08,ESE,112,3.0,3.0,94,0.00,,,0.00,25,Wunderground v.1.15,2013-10-30 13:41:00,
2013-10-30 08:46:00,47.6,46.0,30.08,SE,127,2.0,8.0,94,0.00,,,0.00,19,Wunderground v.1.15,2013-10-30 13:46:00,
2013-10-30 08:51:00,47.7,46.1,30.08,SE,142,1.0,3.0,94,0.00,,,0.00,25,Wunderground v.1.15,2013-10-30 13:51:00,
2013-10-30 08:56:00,47.8,46.2,30.08,SE,142,4.0,4.0,94,0.00,,,0.00,28,Wunderground v.1.15,2013-10-30 13:56:00,
2013-10-30 09:01:00,47.8,46.2,30.08,SE,142,3.0,4.0,94,0.00,,,0.00,33,Wunderground v.1.15,2013-10-30 14:01:00,
2013-10-30 09:06:00,47.9,46.3,30.08,SE,142,1.0,4.0,94,0.00,,,0.00,35,Wunderground v.1.15,2013-10-30 14:06:00,
2013-10-30 09:11:00,48.1,46.7,30.08,SE,142,2.0,4.0,95,0.00,,,0.00,60,Wunderground v.1.15,2013-10-30 14:11:00,
2013-10-30 09:16:00,48.1,46.7,30.08,SSE,153,2.0,5.0,95,0.00,,,0.00,54,Wunderground v.1.15,2013-10-30 14:16:00,
2013-10-30 09:21:00,48.3,46.9,30.08,SSE,157,2.0,5.0,95,0.00,,,0.00,58,Wunderground v.1.15,2013-10-30 14:21:00,
2013-10-30 09:26:00,48.4,47.0,30.09,SSE,166,3.0,7.0,95,0.00,,,0.00,56,Wunderground v.1.15,2013-10-30 14:26:00,
2013-10-30 09:31:00,48.5,47.1,30.09,South,169,3.0,4.0,95,0.00,,,0.00,60,Wunderground v.1.15,2013-10-30 14:31:00,
2013-10-30 09:36:00,48.7,47.3,30.09,SSE,159,4.0,5.0,95,0.00,,,0.00,67,Wunderground v.1.15,2013-10-30 14:36:00,
2013-10-30 09:41:00,48.8,47.4,30.09,SSE,167,3.0,5.0,95,0.00,,,0.00,69,Wunderground v.1.15,2013-10-30 14:41:00,
2013-10-30 09:46:00,48.9,47.5,30.09,SSE,168,3.0,5.0,95,0.00,,,0.00,58,Wunderground v.1.15,2013-10-30 14:46:00,
2013-10-30 09:51:00,49.0,47.6,30.09,SSE,155,5.0,7.0,95,0.00,,,0.00,60,Wunderground v.1.15,2013-10-30 14:51:00,
2013-10-30 09:56:00,49.2,47.8,30.08,SSE,159,0.0,7.0,95,0.00,,,0.00,63,Wunderground v.1.15,2013-10-30 14:56:00,
2013-10-30 10:01:00,49.2,47.8,30.08,SSE,167,3.0,5.0,95,0.00,,,0.00,69,Wunderground v.1.15,2013-10-30 15:01:00,
2013-10-30 10:06:00,49.3,47.9,30.09,SSE,160,3.0,6.0,95,0.00,,,0.00,76,Wunderground v.1.15,2013-10-30 15:06:00,
2013-10-30 10:11:00,49.4,48.0,30.08,SE,144,4.0,5.0,95,0.00,,,0.00,88,Wunderground v.1.15,2013-10-30 15:11:00,
2013-10-30 10:16:00,49.4,48.0,30.07,SE,136,5.0,8.0,95,0.00,,,0.00,90,Wunderground v.1.15,2013-10-30 15:16:00,
2013-10-30 10:22:00,49.5,48.1,30.06,SE,145,4.0,7.0,95,0.00,,,0.00,120,Wunderground v.1.15,2013-10-30 15:22:00,
2013-10-30 10:27:00,49.6,47.9,30.06,SSE,153,4.0,8.0,94,0.00,,,0.00,95,Wunderground v.1.15,2013-10-30 15:27:00,
2013-10-30 10:32:00,49.7,48.0,30.06,SSE,160,5.0,7.0,94,0.00,,,0.00,70,Wunderground v.1.15,2013-10-30 15:32:00,
2013-10-30 10:37:00,49.8,48.4,30.06,SE,140,4.0,8.0,95,0.00,,,0.00,69,Wunderground v.1.15,2013-10-30 15:37:00,
2013-10-30 10:42:00,49.9,48.2,30.05,SSE,164,2.0,6.0,94,0.00,,,0.00,67,Wunderground v.1.15,2013-10-30 15:42:00,
2013-10-30 10:47:00,50.0,48.3,30.05,SSE,163,5.0,8.0,94,0.00,,,0.00,83,Wunderground v.1.15,2013-10-30 15:47:00,
2013-10-30 10:52:00,50.1,48.4,30.05,SE,140,2.0,6.0,94,0.00,,,0.00,148,Wunderground v.1.15,2013-10-30 15:52:00,
2013-10-30 10:57:00,50.3,48.6,30.04,SE,130,3.0,10.0,94,0.00,,,0.00,114,Wunderground v.1.15,2013-10-30 15:57:00,
2013-10-30 11:02:00,50.5,48.8,30.04,SE,138,4.0,10.0,94,0.00,,,0.00,121,Wunderground v.1.15,2013-10-30 16:02:00,
2013-10-30 11:07:00,50.7,49.0,30.03,SE,126,8.0,11.0,94,0.00,,,0.00,118,Wunderground v.1.15,2013-10-30 16:07:00,
2013-10-30 11:12:00,50.8,49.1,30.04,SE,131,5.0,8.0,94,0.00,,,0.00,91,Wunderground v.1.15,2013-10-30 16:12:00,
2013-10-30 11:17:00,50.9,49.2,30.03,SE,124,3.0,8.0,94,0.00,,,0.00,93,Wunderground v.1.15,2013-10-30 16:17:00,
2013-10-30 11:22:00,51.1,49.1,30.03,SE,132,5.0,10.0,93,0.00,,,0.00,51,Wunderground v.1.15,2013-10-30 16:22:00,
2013-10-30 11:27:00,51.1,49.1,30.03,SSE,158,7.0,10.0,93,0.00,,,0.00,53,Wunderground v.1.15,2013-10-30 16:27:00,
2013-10-30 11:32:00,51.2,49.2,30.04,SSE,160,3.0,4.0,93,0.00,,,0.00,62,Wunderground v.1.15,2013-10-30 16:32:00,
2013-10-30 11:37:00,51.3,49.3,30.03,SE,146,4.0,7.0,93,0.00,,,0.00,97,Wunderground v.1.15,2013-10-30 16:37:00,
2013-10-30 11:42:00,51.4,49.4,30.03,ESE,107,7.0,8.0,93,0.00,,,0.00,62,Wunderground v.1.15,2013-10-30 16:42:00,
2013-10-30 11:47:00,51.6,49.6,30.03,SSE,154,3.0,8.0,93,0.00,,,0.00,83,Wunderground v.1.15,2013-10-30 16:47:00,
2013-10-30 11:52:00,51.7,49.7,30.03,ESE,122,3.0,7.0,93,0.00,,,0.00,76,Wunderground v.1.15,2013-10-30 16:52:00,
2013-10-30 11:57:00,51.7,49.7,30.03,SE,142,2.0,8.0,93,0.00,,,0.00,67,Wunderground v.1.15,2013-10-30 16:57:00,
2013-10-30 12:02:00,51.8,49.8,30.03,East,99,5.0,6.0,93,0.00,,,0.00,79,Wunderground v.1.15,2013-10-30 17:02:00,
2013-10-30 12:07:00,51.9,49.9,30.03,SSE,147,4.0,7.0,93,0.00,,,0.00,56,Wunderground v.1.15,2013-10-30 17:07:00,
2013-10-30 12:12:00,52.0,50.0,30.02,ESE,122,7.0,7.0,93,0.00,,,0.00,90,Wunderground v.1.15,2013-10-30 17:12:00,
2013-10-30 12:17:00,52.1,50.1,30.02,SSE,147,3.0,8.0,93,0.00,,,0.00,69,Wunderground v.1.15,2013-10-30 17:17:00,
2013-10-30 12:22:00,52.2,50.2,30.02,SE,134,5.0,10.0,93,0.00,,,0.00,51,Wunderground v.1.15,2013-10-30 17:22:00,
2013-10-30 12:27:00,52.3,50.3,30.02,SSE,155,6.0,11.0,93,0.00,,,0.00,77,Wunderground v.1.15,2013-10-30 17:27:00,
2013-10-30 12:32:00,52.3,50.3,30.01,SE,140,5.0,7.0,93,0.00,,,0.00,79,Wunderground v.1.15,2013-10-30 17:32:00,
2013-10-30 12:37:00,52.4,50.4,30.01,SE,144,5.0,7.0,93,0.00,,,0.00,60,Wunderground v.1.15,2013-10-30 17:37:00,
2013-10-30 12:42:00,52.4,50.1,30.01,SSE,153,5.0,9.0,92,0.00,,,0.00,63,Wunderground v.1.15,2013-10-30 17:42:00,
2013-10-30 12:47:00,52.4,50.4,30.01,SSE,153,6.0,9.0,93,0.00,,,0.00,53,Wunderground v.1.15,2013-10-30 17:47:00,
2013-10-30 12:52:00,52.4,50.4,30.00,SSE,156,7.0,7.0,93,0.00,,,0.00,53,Wunderground v.1.15,2013-10-30 17:52:00,
2013-10-30 12:57:00,52.3,50.3,30.00,SSE,153,5.0,7.0,93,0.00,,,0.00,49,Wunderground v.1.15,2013-10-30 17:57:00,
2013-10-30 13:02:00,52.4,50.4,30.00,SSE,161,6.0,6.0,93,0.00,,,0.00,60,Wunderground v.1.15,2013-10-30 18:02:00,
2013-10-30 13:07:00,52.4,50.4,30.00,SE,127,6.0,7.0,93,0.00,,,0.00,67,Wunderground v.1.15,2013-10-30 18:07:00,
2013-10-30 13:12:00,52.5,50.5,30.00,SE,140,5.0,9.0,93,0.00,,,0.00,72,Wunderground v.1.15,2013-10-30 18:12:00,
2013-10-30 13:17:00,52.5,50.8,30.00,SSE,153,6.0,9.0,94,0.00,,,0.00,51,Wunderground v.1.15,2013-10-30 18:17:00,
2013-10-30 13:22:00,52.5,50.8,29.99,SSE,163,7.0,9.0,94,0.00,,,0.00,63,Wunderground v.1.15,2013-10-30 18:22:00,
2013-10-30 13:27:00,52.5,50.8,29.99,South,171,7.0,9.0,94,0.00,,,0.00,47,Wunderground v.1.15,2013-10-30 18:27:00,
2013-10-30 13:32:00,52.5,50.8,29.99,SE,139,5.0,10.0,94,0.00,,,0.00,53,Wunderground v.1.15,2013-10-30 18:32:00,
2013-10-30 13:37:00,52.6,50.9,29.98,SE,126,6.0,10.0,94,0.00,,,0.00,58,Wunderground v.1.15,2013-10-30 18:37:00,
2013-10-30 13:42:00,52.6,50.9,29.98,SSE,158,6.0,10.0,94,0.00,,,0.00,58,Wunderground v.1.15,2013-10-30 18:42:00,
2013-10-30 13:47:00,52.6,50.9,29.98,SE,144,5.0,10.0,94,0.00,,,0.00,58,Wunderground v.1.15,2013-10-30 18:47:00,
2013-10-30 13:52:00,52.6,50.9,29.98,SE,144,9.0,11.0,94,0.00,,,0.00,56,Wunderground v.1.15,2013-10-30 18:52:00,
2013-10-30 13:57:00,52.6,50.9,29.97,SSE,159,4.0,12.0,94,0.00,,,0.00,28,Wunderground v.1.15,2013-10-30 18:57:00,
2013-10-30 14:02:00,52.6,50.9,29.97,SSE,153,10.0,10.0,94,0.00,,,0.00,44,Wunderground v.1.15,2013-10-30 19:02:00,
2013-10-30 14:07:00,52.6,51.2,29.97,South,171,8.0,11.0,95,0.00,,,0.00,54,Wunderground v.1.15,2013-10-30 19:07:00,
2013-10-30 14:13:00,52.6,51.2,29.96,South,169,6.0,9.0,95,0.00,,,0.00,47,Wunderground v.1.15,2013-10-30 19:13:00,
2013-10-30 14:18:00,52.6,51.2,29.96,SSE,155,5.0,11.0,95,0.00,,,0.00,70,Wunderground v.1.15,2013-10-30 19:18:00,
2013-10-30 14:23:00,52.7,51.3,29.95,SSE,161,8.0,10.0,95,0.00,,,0.00,60,Wunderground v.1.15,2013-10-30 19:23:00,
2013-10-30 14:28:00,52.7,51.3,29.95,SSE,152,5.0,10.0,95,0.00,,,0.00,69,Wunderground v.1.15,2013-10-30 19:28:00,
2013-10-30 14:33:00,52.8,51.4,29.94,SSE,155,6.0,8.0,95,0.00,,,0.00,72,Wunderground v.1.15,2013-10-30 19:33:00,
2013-10-30 14:38:00,52.8,51.4,29.93,SSW,192,5.0,12.0,95,0.00,,,0.00,53,Wunderground v.1.15,2013-10-30 19:38:00,
2013-10-30 14:43:00,52.8,51.4,29.92,SE,145,5.0,11.0,95,0.00,,,0.00,46,Wunderground v.1.15,2013-10-30 19:43:00,
2013-10-30 14:48:00,52.8,51.4,29.92,SSE,150,4.0,11.0,95,0.00,,,0.00,54,Wunderground v.1.15,2013-10-30 19:48:00,
2013-10-30 14:53:00,52.8,51.4,29.92,ESE,121,8.0,10.0,95,0.00,,,0.00,51,Wunderground v.1.15,2013-10-30 19:53:00,
2013-10-30 14:58:00,52.8,51.4,29.92,ESE,122,9.0,10.0,95,0.00,,,0.00,37,Wunderground v.1.15,2013-10-30 19:58:00,
2013-10-30 15:03:00,52.8,51.4,29.91,ESE,106,9.0,9.0,95,0.00,,,0.00,30,Wunderground v.1.15,2013-10-30 20:03:00,
2013-10-30 15:08:00,52.7,51.3,29.91,SE,138,5.0,11.0,95,0.00,,,0.00,26,Wunderground v.1.15,2013-10-30 20:08:00,
2013-10-30 15:13:00,52.6,51.2,29.90,SE,127,9.0,11.0,95,0.00,,,0.00,25,Wunderground v.1.15,2013-10-30 20:13:00,
2013-10-30 15:18:00,52.5,51.1,29.89,SE,136,5.0,12.0,95,0.00,,,0.00,23,Wunderground v.1.15,2013-10-30 20:18:00,
2013-10-30 15:23:00,52.4,51.0,29.90,SE,141,8.0,14.0,95,0.00,,,0.00,18,Wunderground v.1.15,2013-10-30 20:23:00,
2013-10-30 15:28:00,52.4,51.0,29.91,SE,140,5.0,14.0,95,0.00,,,0.00,16,Wunderground v.1.15,2013-10-30 20:28:00,
2013-10-30 15:33:00,52.4,51.0,29.90,ESE,121,10.0,10.0,95,0.00,,,0.00,19,Wunderground v.1.15,2013-10-30 20:33:00,
2013-10-30 15:38:00,52.4,51.0,29.90,SE,139,7.0,11.0,95,0.00,,,0.00,18,Wunderground v.1.15,2013-10-30 20:38:00,
2013-10-30 15:43:00,52.4,51.0,29.90,SSE,158,8.0,10.0,95,0.00,,,0.00,19,Wunderground v.1.15,2013-10-30 20:43:00,
2013-10-30 15:48:00,52.3,50.9,29.90,SE,126,6.0,10.0,95,0.00,,,0.00,21,Wunderground v.1.15,2013-10-30 20:48:00,
2013-10-30 15:53:00,52.3,50.9,29.90,SE,141,6.0,11.0,95,0.00,,,0.00,14,Wunderground v.1.15,2013-10-30 20:53:00,
2013-10-30 15:58:00,52.3,51.2,29.90,SSE,163,6.0,12.0,96,0.00,,,0.00,12,Wunderground v.1.15,2013-10-30 20:58:00,
2013-10-30 16:03:00,52.3,51.2,29.90,SSE,150,4.0,7.0,96,0.00,,,0.00,11,Wunderground v.1.15,2013-10-30 21:03:00,
2013-10-30 16:08:00,52.3,51.2,29.90,SSE,158,2.0,8.0,96,0.00,,,0.00,9,Wunderground v.1.15,2013-10-30 21:08:00,
2013-10-30 16:13:00,52.3,51.2,29.90,ESE,112,4.0,6.0,96,0.00,,,0.00,7,Wunderground v.1.15,2013-10-30 21:13:00,
2013-10-30 16:19:00,52.3,51.2,29.90,SE,142,1.0,7.0,96,0.00,,,0.00,9,Wunderground v.1.15,2013-10-30 21:19:00,
2013-10-30 16:24:00,52.2,51.1,29.90,SE,128,3.0,7.0,96,0.00,,,0.00,9,Wunderground v.1.15,2013-10-30 21:24:00,
2013-10-30 16:29:00,52.2,51.1,29.89,SE,137,5.0,7.0,96,0.00,,,0.00,12,Wunderground v.1.15,2013-10-30 21:29:00,
2013-10-30 16:34:00,52.1,51.0,29.88,SE,126,5.0,9.0,96,0.00,,,0.00,9,Wunderground v.1.15,2013-10-30 21:34:00,
2013-10-30 16:39:00,52.1,51.0,29.89,SE,146,3.0,9.0,96,0.00,,,0.00,11,Wunderground v.1.15,2013-10-30 21:39:00,
2013-10-30 16:44:00,52.2,51.1,29.87,SE,146,8.0,10.0,96,0.00,,,0.00,9,Wunderground v.1.15,2013-10-30 21:44:00,
2013-10-30 16:49:00,52.1,51.0,29.86,SE,142,6.0,12.0,96,0.00,,,0.00,5,Wunderground v.1.15,2013-10-30 21:49:00,
2013-10-30 16:54:00,52.1,51.0,29.85,SE,136,7.0,12.0,96,0.00,,,0.00,5,Wunderground v.1.15,2013-10-30 21:54:00,
2013-10-30 16:59:00,52.2,51.1,29.84,SSE,165,9.0,12.0,96,0.00,,,0.00,5,Wunderground v.1.15,2013-10-30 21:59:00,
2013-10-30 17:04:00,52.2,51.1,29.83,SE,136,8.0,14.0,96,0.00,,,0.00,5,Wunderground v.1.15,2013-10-30 22:04:00,
2013-10-30 17:09:00,52.3,51.2,29.84,SSE,155,6.0,14.0,96,0.00,,,0.00,0,Wunderground v.1.15,2013-10-30 22:09:00,
2013-10-30 17:14:00,52.4,51.3,29.85,SSE,156,4.0,9.0,96,0.00,,,0.00,0,Wunderground v.1.15,2013-10-30 22:14:00,
2013-10-30 17:19:00,52.5,51.4,29.84,SSE,149,5.0,10.0,96,0.00,,,0.00,0,Wunderground v.1.15,2013-10-30 22:19:00,
2013-10-30 17:24:00,52.6,51.5,29.85,SE,137,9.0,9.0,96,0.00,,,0.00,0,Wunderground v.1.15,2013-10-30 22:24:00,
2013-10-30 17:29:00,52.8,51.7,29.84,SSE,155,4.0,11.0,96,0.00,,,0.00,0,Wunderground v.1.15,2013-10-30 22:29:00,
2013-10-30 17:34:00,52.9,51.8,29.84,South,186,7.0,10.0,96,0.00,,,0.00,0,Wunderground v.1.15,2013-10-30 22:34:00,
2013-10-30 17:39:00,53.0,51.9,29.83,SSE,159,6.0,12.0,96,0.00,,,0.00,0,Wunderground v.1.15,2013-10-30 22:39:00,
2013-10-30 17:44:00,53.2,52.4,29.84,South,183,8.0,12.0,97,0.00,,,0.00,0,Wunderground v.1.15,2013-10-30 22:44:00,
2013-10-30 17:49:00,53.3,52.5,29.83,SSE,159,10.0,15.0,97,0.00,,,0.00,0,Wunderground v.1.15,2013-10-30 22:49:00,
2013-10-30 17:54:00,53.5,52.7,29.82,SSE,153,8.0,15.0,97,0.00,,,0.00,0,Wunderground v.1.15,2013-10-30 22:54:00,
2013-10-30 17:59:00,53.7,52.9,29.82,SSE,152,2.0,16.0,97,0.00,,,0.00,0,Wunderground v.1.15,2013-10-30 22:59:00,
2013-10-30 18:04:00,53.8,53.0,29.84,South,179,0.0,9.0,97,0.00,,,0.00,0,Wunderground v.1.15,2013-10-30 23:04:00,
2013-10-30 18:09:00,54.0,53.2,29.85,West,262,0.0,9.0,97,0.00,,,0.00,0,Wunderground v.1.15,2013-10-30 23:09:00,
2013-10-30 18:14:00,54.1,53.3,29.86,West,262,0.0,2.0,97,0.00,,,0.00,0,Wunderground v.1.15,2013-10-30 23:14:00,
2013-10-30 18:19:00,54.1,53.3,29.84,SSE,150,6.0,6.0,97,0.00,,,0.00,0,Wunderground v.1.15,2013-10-30 23:19:00,
2013-10-30 18:24:00,54.2,53.4,29.84,SSE,158,0.0,6.0,97,0.00,,,0.00,0,Wunderground v.1.15,2013-10-30 23:24:00,
2013-10-30 18:30:00,54.3,53.5,29.84,SSE,158,0.0,2.0,97,0.00,,,0.00,0,Wunderground v.1.15,2013-10-30 23:30:00,
2013-10-30 18:35:00,54.3,53.5,29.84,SSE,158,2.0,2.0,97,0.00,,,0.00,0,Wunderground v.1.15,2013-10-30 23:35:00,
2013-10-30 18:40:00,54.4,53.6,29.84,SSE,158,0.0,0.0,97,0.00,,,0.00,0,Wunderground v.1.15,2013-10-30 23:40:00,
2013-10-30 18:45:00,54.4,53.6,29.84,SSE,158,0.0,3.0,97,0.00,,,0.00,0,Wunderground v.1.15,2013-10-30 23:45:00,
2013-10-30 18:50:00,54.4,53.6,29.84,SSE,158,0.0,0.0,97,0.00,,,0.00,0,Wunderground v.1.15,2013-10-30 23:50:00,
2013-10-30 18:55:00,54.4,53.6,29.84,SSE,158,0.0,0.0,97,0.00,,,0.00,0,Wunderground v.1.15,2013-10-30 23:55:00,
2013-10-30 19:00:00,54.4,53.6,29.83,SSE,158,3.0,3.0,97,0.00,,,0.00,0,Wunderground v.1.15,2013-10-31 00:00:00,
2013-10-30 19:05:00,54.5,53.7,29.83,SSE,158,0.0,3.0,97,0.00,,,0.00,0,Wunderground v.1.15,2013-10-31 00:05:00,
2013-10-30 19:10:00,54.5,53.7,29.83,SSE,158,2.0,2.0,97,0.00,,,0.00,0,Wunderground v.1.15,2013-10-31 00:10:00,
2013-10-30 19:15:00,54.5,53.7,29.82,SSE,158,0.0,2.0,97,0.00,,,0.00,0,Wunderground v.1.15,2013-10-31 00:15:00,
2013-10-30 19:20:00,54.4,53.3,29.82,SSE,158,0.0,1.0,96,0.00,,,0.00,0,Wunderground v.1.15,2013-10-31 00:20:00,
2013-10-30 19:25:00,54.3,53.2,29.82,SSE,158,0.0,1.0,96,0.00,,,0.00,0,Wunderground v.1.15,2013-10-31 00:25:00,
2013-10-30 19:30:00,54.2,53.1,29.82,SSE,158,0.0,0.0,96,0.00,,,0.00,0,Wunderground v.1.15,2013-10-31 00:30:00,
2013-10-30 19:35:00,54.1,53.0,29.82,SSE,158,1.0,5.0,96,0.00,,,0.00,0,Wunderground v.1.15,2013-10-31 00:35:00,
2013-10-30 19:40:00,54.0,52.9,29.82,SSE,158,0.0,1.0,96,0.00,,,0.00,0,Wunderground v.1.15,2013-10-31 00:40:00,
2013-10-30 19:45:00,53.9,52.8,29.81,SSE,158,0.0,2.0,96,0.00,,,0.00,0,Wunderground v.1.15,2013-10-31 00:45:00,
2013-10-30 19:51:00,53.9,52.8,29.81,SSE,158,0.0,1.0,96,0.00,,,0.00,0,Wunderground v.1.15,2013-10-31 00:51:00,
2013-10-30 19:56:00,53.9,52.8,29.80,SSE,158,1.0,2.0,96,0.00,,,0.00,0,Wunderground v.1.15,2013-10-31 00:56:00,
2013-10-30 20:01:00,53.8,52.7,29.80,SSE,158,0.0,1.0,96,0.00,,,0.00,0,Wunderground v.1.15,2013-10-31 01:01:00,
2013-10-30 20:06:00,53.8,52.7,29.80,SSE,158,0.0,1.0,96,0.00,,,0.00,0,Wunderground v.1.15,2013-10-31 01:06:00,
2013-10-30 20:11:00,53.7,52.6,29.80,SSE,158,1.0,3.0,96,0.00,,,0.00,0,Wunderground v.1.15,2013-10-31 01:11:00,
2013-10-30 20:16:00,53.7,52.6,29.80,SSE,158,4.0,4.0,96,0.00,,,0.00,0,Wunderground v.1.15,2013-10-31 01:16:00,
2013-10-30 20:21:00,53.6,52.5,29.79,SSE,158,0.0,2.0,96,0.00,,,0.00,0,Wunderground v.1.15,2013-10-31 01:21:00,
2013-10-30 20:26:00,53.6,52.5,29.79,SSE,158,2.0,3.0,96,0.00,,,0.00,0,Wunderground v.1.15,2013-10-31 01:26:00,
2013-10-30 20:31:00,53.5,52.4,29.79,SSE,158,1.0,1.0,96,0.00,,,0.00,0,Wunderground v.1.15,2013-10-31 01:31:00,
2013-10-30 20:36:00,53.3,52.2,29.78,SSE,158,1.0,3.0,96,0.00,,,0.00,0,Wunderground v.1.15,2013-10-31 01:36:00,
2013-10-30 20:41:00,53.2,52.1,29.78,SSE,158,0.0,3.0,96,0.00,,,0.00,0,Wunderground v.1.15,2013-10-31 01:41:00,
2013-10-30 20:46:00,53.1,52.0,29.77,SSE,158,0.0,3.0,96,0.00,,,0.00,0,Wunderground v.1.15,2013-10-31 01:46:00,
2013-10-30 20:51:00,53.1,52.0,29.77,SSE,158,0.0,1.0,96,0.00,,,0.00,0,Wunderground v.1.15,2013-10-31 01:51:00,
2013-10-30 20:56:00,53.0,51.9,29.78,SSE,158,0.0,2.0,96,0.00,,,0.00,0,Wunderground v.1.15,2013-10-31 01:56:00,
2013-10-30 21:02:00,53.0,51.9,29.78,SSE,158,0.0,0.0,96,0.00,,,0.00,0,Wunderground v.1.15,2013-10-31 02:02:00,
2013-10-30 21:07:00,52.9,51.8,29.78,SSE,158,0.0,0.0,96,0.00,,,0.00,0,Wunderground v.1.15,2013-10-31 02:07:00,
2013-10-30 21:12:00,52.7,51.6,29.77,SSE,158,3.0,3.0,96,0.00,,,0.00,0,Wunderground v.1.15,2013-10-31 02:12:00,
2013-10-30 21:17:00,52.7,51.6,29.77,SSE,158,0.0,3.0,96,0.00,,,0.00,0,Wunderground v.1.15,2013-10-31 02:17:00,
2013-10-30 21:22:00,52.6,51.5,29.77,SSE,158,0.0,1.0,96,0.00,,,0.00,0,Wunderground v.1.15,2013-10-31 02:22:00,
2013-10-30 21:27:00,52.4,51.3,29.78,SSE,158,0.0,1.0,96,0.00,,,0.00,0,Wunderground v.1.15,2013-10-31 02:27:00,
2013-10-30 21:32:00,52.4,51.3,29.78,SSE,158,0.0,0.0,96,0.00,,,0.00,0,Wunderground v.1.15,2013-10-31 02:32:00,
2013-10-30 21:37:00,52.3,51.2,29.78,SSE,158,0.0,0.0,96,0.00,,,0.00,0,Wunderground v.1.15,2013-10-31 02:37:00,
2013-10-30 21:42:00,52.2,51.1,29.78,SSE,158,0.0,0.0,96,0.00,,,0.00,0,Wunderground v.1.15,2013-10-31 02:42:00,
2013-10-30 21:47:00,52.1,51.0,29.79,SSE,158,0.0,0.0,96,0.00,,,0.00,0,Wunderground v.1.15,2013-10-31 02:47:00,
2013-10-30 21:52:00,52.0,50.9,29.78,SSE,158,0.0,0.0,96,0.00,,,0.00,0,Wunderground v.1.15,2013-10-31 02:52:00,
2013-10-30 21:57:00,51.7,50.6,29.77,SSE,158,0.0,0.0,96,0.00,,,0.00,0,Wunderground v.1.15,2013-10-31 02:57:00,
2013-10-30 22:00:00,51.6,50.5,29.77,SSE,158,0.0,0.0,96,0.00,,,0.00,0,Wunderground v.1.15,2013-10-31 03:00:00,
2013-10-30 22:05:00,51.5,50.4,29.77,SSE,158,0.0,0.0,96,0.00,,,0.00,0,Wunderground v.1.15,2013-10-31 03:05:00,
2013-10-30 22:10:00,51.5,50.4,29.76,SSE,158,0.0,0.0,96,0.00,,,0.00,0,Wunderground v.1.15,2013-10-31 03:10:00,
2013-10-30 22:15:00,51.3,50.2,29.76,SSE,158,0.0,0.0,96,0.00,,,0.00,0,Wunderground v.1.15,2013-10-31 03:15:00,
2013-10-30 22:20:00,51.1,50.0,29.77,SSE,158,0.0,0.0,96,0.00,,,0.00,0,Wunderground v.1.15,2013-10-31 03:20:00,
2013-10-30 22:25:00,51.0,49.9,29.77,SSE,158,2.0,2.0,96,0.00,,,0.00,0,Wunderground v.1.15,2013-10-31 03:25:00,
2013-10-30 22:30:00,51.0,49.9,29.77,SSE,158,0.0,0.0,96,0.00,,,0.00,0,Wunderground v.1.15,2013-10-31 03:30:00,
2013-10-30 22:35:00,50.9,49.8,29.76,SSE,158,0.0,0.0,96,0.00,,,0.00,0,Wunderground v.1.15,2013-10-31 03:35:00,
2013-10-30 22:40:00,50.8,49.7,29.76,SSE,158,1.0,2.0,96,0.00,,,0.00,0,Wunderground v.1.15,2013-10-31 03:40:00,
2013-10-30 22:45:00,50.6,49.5,29.76,SSE,158,0.0,2.0,96,0.00,,,0.00,0,Wunderground v.1.15,2013-10-31 03:45:00,
2013-10-30 22:50:00,50.5,49.4,29.76,SSE,158,0.0,1.0,96,0.00,,,0.00,0,Wunderground v.1.15,2013-10-31 03:50:00,
2013-10-30 22:56:00,50.5,49.4,29.76,SSE,158,0.0,1.0,96,0.00,,,0.00,0,Wunderground v.1.15,2013-10-31 03:56:00,
2013-10-30 23:01:00,50.8,50.0,29.76,SSE,158,0.0,2.0,97,0.00,,,0.00,0,Wunderground v.1.15,2013-10-31 04:01:00,
2013-10-30 23:06:00,51.2,50.4,29.76,SSE,158,1.0,5.0,97,0.00,,,0.00,0,Wunderground v.1.15,2013-10-31 04:06:00,
2013-10-30 23:11:00,52.1,51.3,29.75,SSE,159,3.0,6.0,97,0.00,,,0.00,0,Wunderground v.1.15,2013-10-31 04:11:00,
2013-10-30 23:16:00,53.0,52.5,29.75,South,170,5.0,6.0,98,0.00,,,0.00,0,Wunderground v.1.15,2013-10-31 04:16:00,
2013-10-30 23:21:00,53.6,53.0,29.74,South,169,2.0,6.0,98,0.00,,,0.00,0,Wunderground v.1.15,2013-10-31 04:21:00,
2013-10-30 23:26:00,54.0,53.4,29.74,South,169,4.0,6.0,98,0.00,,,0.00,0,Wunderground v.1.15,2013-10-31 04:26:00,
2013-10-30 23:31:00,54.2,53.6,29.73,SSE,163,4.0,6.0,98,0.00,,,0.00,0,Wunderground v.1.15,2013-10-31 04:31:00,
2013-10-30 23:36:00,54.4,53.8,29.74,SSE,167,3.0,6.0,98,0.00,,,0.00,0,Wunderground v.1.15,2013-10-31 04:36:00,
2013-10-30 23:41:00,54.5,53.9,29.74,SSE,167,1.0,4.0,98,0.00,,,0.00,0,Wunderground v.1.15,2013-10-31 04:41:00,
2013-10-30 23:46:00,54.5,53.7,29.74,SSE,167,2.0,4.0,97,0.00,,,0.00,0,Wunderground v.1.15,2013-10-31 04:46:00,
2013-10-30 23:51:00,54.5,53.7,29.73,SSE,167,1.0,1.0,97,0.00,,,0.00,0,Wunderground v.1.15,2013-10-31 04:51:00,
2013-10-30 23:57:00,54.4,53.6,29.73,SSE,167,3.0,3.0,97,0.00,,,0.00,0,Wunderground v.1.15,2013-10-31 04:57:00,